Pagrindinis puslapis
METAR-TAF:

METAR-TAF

Oro uostai :

Dübendorf, Šveicarija

platuma: 47-23-55N, ilguma: 8-38-53E, Aukštis: 448 m

Dabartinis oras

Ataskaita buvo paskelbta 1 valandą ir 6 minutes, ne 09:50 UTC
Ramus vėjas
Temperatūra 15°C
Drėgmė 67%
Slėgis 1021 hPa
Matomumas 10 km arba daugiau

METAR: LSMD 210950Z AUTO 00000KT 9999NDV NCD 15/09 Q1021 RMK

Laikas: 12:56 (10:56 UTC)


TAF: trūkstamas

Orai ataskaitas ir orų prognozės (METAR, TAF).

turimą stotys yra geltonos ir raudonos taškus žemėlapyje.

Perkelti pele per norėdami pamatyti stoties vardą.

Tada spustelėkite, norėdami matyti oro stebėjimo ir prognozės.

Norėdami pakeisti žemėlapį: spustelėkite ant žalios mygtukų su juodo kryžiaus žemyn,; žalią mygtuką su brūkšneliu, jei norite nutolinti; arba žalių rodyklių gretimoms žemėlapius.


METAR-TAF: